Hourly Weather Bolshoy Shinar

Today, 1 August, Sunday

Time Temperature Precipitation Wind Pressure Humidity
00:00 +19°C° 0 mm 3 mps 746 mmHg 82%
01:00 +19°C° 0 mm 3 mps 747 mmHg 81%
02:00 +19°C° 0 mm 3 mps 747 mmHg 79%
03:00 +19°C° 0 mm 3 mps 747 mmHg 78%
04:00 +19°C° 0 mm 4 mps 747 mmHg 76%
05:00 +19°C° 0 mm 4 mps 748 mmHg 74%
06:00 +20°C° 0 mm 4 mps 748 mmHg 72%
07:00 +22°C° 0 mm 4 mps 748 mmHg 64%
08:00 +23°C° 0 mm 4 mps 749 mmHg 57%
09:00 +26°C° 0 mm 4 mps 749 mmHg 49%
10:00 +27°C° 0 mm 4 mps 749 mmHg 45%
11:00 +28°C° 0 mm 5 mps 749 mmHg 42%
12:00 +29°C° 0 mm 6 mps 749 mmHg 38%
13:00 +29°C° 0 mm 6 mps 749 mmHg 38%
14:00 +29°C° 0 mm 5 mps 749 mmHg 38%
15:00 +29°C° 0 mm 5 mps 750 mmHg 38%
16:00 +28°C° 0 mm 5 mps 750 mmHg 43%
17:00 +27°C° 0 mm 4 mps 750 mmHg 49%
18:00 +26°C° 0 mm 3 mps 750 mmHg 54%
19:00 +24°C° 0 mm 3 mps 750 mmHg 57%
20:00 +23°C° 0 mm 2 mps 750 mmHg 60%
21:00 +21°C° 0 mm 2 mps 750 mmHg 63%
22:00 +20°C° 0 mm 2 mps 750 mmHg 65%
23:00 +19°C° 0 mm 2 mps 751 mmHg 67%

Tomorrow, 2 August, Monday

Time Temperature Precipitation Wind Pressure Humidity
00:00 +19°C° 0 mm 2 mps 751 mmHg 70%
01:00 +18°C° 0 mm 2 mps 751 mmHg 71%
02:00 +18°C° 0 mm 2 mps 751 mmHg 72%
03:00 +18°C° 0 mm 2 mps 751 mmHg 73%
04:00 +19°C° 0 mm 2 mps 751 mmHg 71%
05:00 +20°C° 0 mm 2 mps 752 mmHg 69%
06:00 +21°C° 0 mm 2 mps 752 mmHg 67%
07:00 +24°C° 0 mm 2 mps 752 mmHg 60%
08:00 +26°C° 0 mm 3 mps 752 mmHg 54%
09:00 +28°C° 0 mm 4 mps 752 mmHg 47%
10:00 +29°C° 0 mm 4 mps 752 mmHg 43%
11:00 +30°C° 0 mm 4 mps 752 mmHg 40%
12:00 +32°C° 0 mm 4 mps 751 mmHg 36%
13:00 +33°C° 0 mm 4 mps 751 mmHg 36%
14:00 +33°C° 0 mm 4 mps 751 mmHg 35%
15:00 +34°C° 0 mm 4 mps 750 mmHg 35%
16:00 +32°C° 0 mm 4 mps 750 mmHg 40%
17:00 +30°C° 0 mm 4 mps 750 mmHg 46%
18:00 +29°C° 0 mm 3 mps 750 mmHg 51%
19:00 +28°C° 0 mm 3 mps 750 mmHg 52%
20:00 +26°C° 0 mm 3 mps 750 mmHg 52%
21:00 +25°C° 0 mm 3 mps 750 mmHg 53%
22:00 +24°C° 0 mm 3 mps 750 mmHg 54%
23:00 +24°C° 0 mm 3 mps 750 mmHg 54%

Day after tomorrow, 3 August, Tuesday

Time Temperature Precipitation Wind Pressure Humidity
00:00 +22°C° 0 mm 3 mps 750 mmHg 55%
01:00 +22°C° 0 mm 3 mps 750 mmHg 55%
02:00 +21°C° 0 mm 3 mps 749 mmHg 55%
03:00 +21°C° 0 mm 3 mps 749 mmHg 55%
04:00 +22°C° 0 mm 3 mps 749 mmHg 55%
05:00 +22°C° 0 mm 3 mps 749 mmHg 55%
06:00 +24°C° 0 mm 3 mps 749 mmHg 55%
07:00 +27°C° 0 mm 4 mps 749 mmHg 49%
08:00 +29°C° 0 mm 4 mps 749 mmHg 44%
09:00 +33°C° 0 mm 5 mps 748 mmHg 38%
10:00 +34°C° 0 mm 5 mps 748 mmHg 35%
11:00 +35°C° 0 mm 6 mps 748 mmHg 32%
12:00 +36°C° 0 mm 6 mps 748 mmHg 30%
13:00 +38°C° 0 mm 6 mps 748 mmHg 28%
14:00 +37°C° 0 mm 5 mps 747 mmHg 26%
15:00 +39°C° 0 mm 5 mps 747 mmHg 24%
16:00 +36°C° 0 mm 4 mps 747 mmHg 29%
17:00 +34°C° 0 mm 4 mps 747 mmHg 33%
18:00 +33°C° 0 mm 3 mps 746 mmHg 38%
19:00 +29°C° 0.7 mm 3 mps 747 mmHg 51%
20:00 +26°C° 0.7 mm 3 mps 747 mmHg 64%
21:00 +24°C° 0.7 mm 3 mps 748 mmHg 77%
22:00 +22°C° 0.1 mm 3 mps 748 mmHg 76%
23:00 +23°C° 0.1 mm 2 mps 748 mmHg 75%

4 August, Wednesday

Time Temperature Precipitation Wind Pressure Humidity
00:00 +23°C° 0.1 mm 2 mps 748 mmHg 74%
01:00 +21°C° 0 mm 2 mps 748 mmHg 76%
02:00 +22°C° 0 mm 1 mps 748 mmHg 78%
03:00 +19°C° 0 mm 0 mps 748 mmHg 80%
04:00 +21°C° 0.1 mm 1 mps 748 mmHg 81%
05:00 +22°C° 0.1 mm 1 mps 748 mmHg 81%
06:00 +21°C° 0.1 mm 2 mps 749 mmHg 82%
07:00 +23°C° 0 mm 2 mps 749 mmHg 77%
08:00 +25°C° 0 mm 2 mps 749 mmHg 73%
09:00 +26°C° 0 mm 3 mps 749 mmHg 68%
10:00 +26°C° 0 mm 3 mps 749 mmHg 66%
11:00 +27°C° 0 mm 2 mps 749 mmHg 63%
12:00 +27°C° 0 mm 2 mps 749 mmHg 60%
13:00 +27°C° 0 mm 2 mps 749 mmHg 60%
14:00 +27°C° 0 mm 2 mps 749 mmHg 60%
15:00 +27°C° 0 mm 2 mps 750 mmHg 60%
16:00 +26°C° 0.2 mm 3 mps 750 mmHg 64%
17:00 +25°C° 0.2 mm 3 mps 749 mmHg 68%
18:00 +25°C° 0.2 mm 4 mps 749 mmHg 73%
19:00 +22°C° 0 mm 3 mps 750 mmHg 79%
20:00 +20°C° 0 mm 3 mps 750 mmHg 85%
21:00 +19°C° 0 mm 3 mps 750 mmHg 91%
22:00 +18°C° 0 mm 3 mps 751 mmHg 91%
23:00 +18°C° 0 mm 3 mps 751 mmHg 91%

5 August, Thursday

Time Temperature Precipitation Wind Pressure Humidity
00:00 +17°C° 0 mm 3 mps 751 mmHg 91%
01:00 +17°C° 0 mm 2 mps 751 mmHg 90%
02:00 +17°C° 0 mm 2 mps 751 mmHg 90%
03:00 +16°C° 0 mm 2 mps 752 mmHg 90%
04:00 +17°C° 0 mm 2 mps 752 mmHg 86%
05:00 +18°C° 0 mm 2 mps 752 mmHg 82%
06:00 +19°C° 0 mm 2 mps 752 mmHg 79%
07:00 +20°C° 0 mm 3 mps 752 mmHg 69%
08:00 +22°C° 0 mm 4 mps 752 mmHg 60%
09:00 +23°C° 0 mm 4 mps 753 mmHg 51%
10:00 +25°C° 0 mm 4 mps 753 mmHg 47%
11:00 +26°C° 0 mm 4 mps 752 mmHg 43%
12:00 +27°C° 0 mm 4 mps 752 mmHg 39%
13:00 +27°C° 0 mm 5 mps 752 mmHg 39%
14:00 +26°C° 0 mm 5 mps 752 mmHg 38%
15:00 +26°C° 0 mm 5 mps 752 mmHg 38%
16:00 +25°C° 0 mm 5 mps 753 mmHg 41%
17:00 +25°C° 0 mm 4 mps 753 mmHg 43%
18:00 +23°C° 0 mm 4 mps 753 mmHg 46%
19:00 +21°C° 0 mm 4 mps 753 mmHg 51%
20:00 +19°C° 0 mm 4 mps 753 mmHg 56%
21:00 +17°C° 0 mm 3 mps 753 mmHg 61%
22:00 +17°C° 0 mm 3 mps 753 mmHg 61%
23:00 +16°C° 0 mm 3 mps 753 mmHg 61%

6 August, Friday

Time Temperature Precipitation Wind Pressure Humidity
00:00 +14°C° 0 mm 3 mps 753 mmHg 60%
01:00 +14°C° 0 mm 3 mps 753 mmHg 62%
02:00 +13°C° 0 mm 3 mps 754 mmHg 63%
03:00 +12°C° 0 mm 3 mps 754 mmHg 65%
04:00 +13°C° 0 mm 3 mps 754 mmHg 64%
05:00 +13°C° 0 mm 3 mps 754 mmHg 63%
06:00 +14°C° 0 mm 3 mps 754 mmHg 63%
07:00 +17°C° 0 mm 3 mps 755 mmHg 57%
08:00 +19°C° 0 mm 4 mps 755 mmHg 52%
09:00 +20°C° 0 mm 4 mps 755 mmHg 46%
10:00 +21°C° 0 mm 5 mps 755 mmHg 44%
11:00 +22°C° 0 mm 5 mps 755 mmHg 41%
12:00 +23°C° 0 mm 5 mps 755 mmHg 38%
13:00 +23°C° 0 mm 5 mps 755 mmHg 38%
14:00 +25°C° 0 mm 4 mps 755 mmHg 37%
15:00 +25°C° 0 mm 4 mps 755 mmHg 37%
16:00 +24°C° 0 mm 3 mps 755 mmHg 41%
17:00 +22°C° 0 mm 3 mps 755 mmHg 44%
18:00 +23°C° 0 mm 2 mps 755 mmHg 48%
19:00 +20°C° 0 mm 2 mps 755 mmHg 53%
20:00 +18°C° 0 mm 2 mps 755 mmHg 57%
21:00 +16°C° 0 mm 2 mps 755 mmHg 61%
22:00 +16°C° 0 mm 2 mps 755 mmHg 61%
23:00 +15°C° 0 mm 2 mps 755 mmHg 61%
Show more

We Need Your Consent

Meteoprog and our Service Providers may store and access personal data such as cookies, device identifiers or other similar technologies on your device and process such data to personalise content and ads, as well as provide social media features and to analyse the traffic.

  • Store and/or access information on your device

    Cookies, device identifiers or other information can be stored or accessed on your device for the purposes indicated above.

  • Personalised ads and content, ad and content measurement, audience insights, and products development

    Ads and content can be personalised based on a profile. More data can be added to better personalise ads and content. Ad and content performance can be measured. Insights about the audience who saw the ads and content can be derived. Such data can be used to develop or improve user’s experience, systems and software.

By clicking ‘I Agree’ you will allow the use of indicated cookies, device identifiers, web beacons or other similar technologies. Your settings can be changed in the browser on your device.

For certain purposes, legitimate interests may be relied on, rather than consent. You can read more about this in our Privacy and Cookie Policy.